www.pogodaiklimat.ru

Погода и климат >> Архив погоды >> Катар >> Dukhan


ПОГОДА в Dukhan

  • Прогноз погоды в Dukhan
  • Монитор погоды в Dukhan
  • Климат города

АРХИВ ПОГОДЫ в Dukhan

Время (UTC), дата Ветер
(напр.,м/с)
 
Видим.   Явления Облачность Т
(С)
Тd
(С)
f
(%)
Тe
(С)
Тes
(С)
Комфортность P
(гПа)
Po
(гПа)
Тmin
(С)
Tmax
(С)
R
(мм)
R24
(мм)
S
(см)
09 11.08 СЗ 8 8000 м н/о +35.5 +30.4 75 +64 +64 опасность
перегрева
1000.4 1000.1
12 11.08 С 10 15 км н/о +35.8 +28.4 66 +58 +58 опасность
перегрева
998.8 998.5
15 11.08 С 11 18 км н/о +34.9 +29.0 72 +59 +59 опасность
перегрева
998.9 998.6
18 11.08 С 5 20 км н/о +34.0 +27.6 69 +53 +53 опасность
перегрева
1000.3 1000.0 +36.3
21 11.08 СЗ 4 14 км н/о +33.4 +30.5 85 +62 +62 опасность
перегрева
999.4 999.1
00 12.08 З 7 20 км н/о +33.5 +27.6 71 +53 +53 опасность
перегрева
998.4 998.1
03 12.08 СЗ 13 20 км н/о +34.6 +25.2 58 +48 +48 опасность
перегрева
999.0 998.7
06 12.08 СЗ 14 19 км н/о +35.1 +26.1 60 +51 +51 опасность
перегрева
999.7 999.4 +33.2
09 12.08 С 17 20 км н/о +36.1 +26.9 59 +54 +54 опасность
перегрева
998.4 998.1
12 12.08 С 15 20 км н/о +38.4 +22.1 39 +46 +46 опасность
перегрева
996.9 996.6
15 12.08 С 10 20 км н/о +36.5 +23.7 48 +47 +47 опасность
перегрева
996.0 995.7
18 12.08 С 7 20 км н/о +35.3 +23.7 51 +46 +46 опасность
перегрева
996.6 996.3 +39.2
21 12.08 СЗ 10 20 км н/о +34.9 +26.6 62 +52 +52 опасность
перегрева
995.2 994.9
00 13.08 СЗ 15 20 км н/о +34.9 +24.8 56 +48 +48 опасность
перегрева
994.3 994.0
03 13.08 С 20 20 км н/о +35.0 +25.4 58 +50 +50 опасность
перегрева
994.8 994.5
06 13.08 С 17 15 км н/о +35.0 +25.5 58 +50 +50 опасность
перегрева
995.8 995.5 +34.1
09 13.08 С 17 15 км н/о +36.6 +24.2 49 +48 +48 опасность
перегрева
995.0 994.7
12 13.08 С 18 7000 м н/о +37.6 +21.5 39 +45 +45 опасность
перегрева
994.1 993.8
15 13.08 С 8 16 км н/о +36.4 +21.8 43 +44 +44 опасность
перегрева
993.8 993.5
18 13.08 С 9 13 км н/о +34.7 +26.3 62 +51 +51 опасность
перегрева
994.8 994.5 +37.6
21 13.08 СЗ 8 13 км н/о +34.0 +27.1 67 +52 +52 опасность
перегрева
994.7 994.4
00 14.08 СЗ 14 4000 м н/о +35.2 +24.3 53 +47 +47 опасность
перегрева
994.9 994.6
03 14.08 С 13 н/о н/о +34.2 +24.4 57 +47 +47 опасность
перегрева
996.3 996.0
06 14.08 СЗ 11 8000 м н/о +34.5 +24.2 55 +47 +47 опасность
перегрева
997.5 997.2 +33.6
09 14.08 С 15 15 км н/о +35.6 +24.7 53 +48 +48 опасность
перегрева
997.1 996.8
12 14.08 С 14 18 км н/о +38.6 +17.4 29 +41 +41 опасность
перегрева
995.8 995.5
15 14.08 С 13 20 км н/о +36.4 +17.0 32 +39 +39 очень
душно
996.0 995.7
18 14.08 С 4 20 км н/о +32.7 +23.7 59 +44 +44 опасность
перегрева
997.4 997.1 +38.9
21 14.08 СЗ 10 20 км н/о +33.1 +26.4 68 +50 +50 опасность
перегрева
997.7 997.4
00 15.08 СЗ 11 20 км н/о +33.3 +23.5 57 +44 +44 опасность
перегрева
997.2 996.9
03 15.08 С 14 20 км н/о +34.1 +23.7 55 +45 +45 опасность
перегрева
998.2 997.9
06 15.08 С 11 20 км н/о +34.8 +25.7 59 +50 +50 опасность
перегрева
999.1 998.8 +32.1
09 15.08 С 10 20 км н/о +35.2 +27.6 65 +55 +55 опасность
перегрева
998.8 998.5
12 15.08 С 12 20 км н/о +37.4 +22.4 42 +46 +46 опасность
перегрева
997.6 997.3
15 15.08 С 8 20 км н/о +36.4 +19.4 37 +41 +41 опасность
перегрева
997.8 997.5
18 15.08 С 5 20 км н/о +33.1 +23.2 56 +44 +44 опасность
перегрева
999.3 999.0 +39.1
21 15.08 СЗ 5 20 км н/о +32.9 +26.9 71 +51 +51 опасность
перегрева
999.1 998.8
00 16.08 СЗ 7 20 км н/о +32.7 +27.7 75 +52 +52 опасность
перегрева
998.6 998.3
03 16.08 Ю 3 20 км н/о +28.9 +23.8 74 +40 +40 очень
душно
999.9 999.6
06 16.08 СЗ 7 20 км н/о +34.2 +22.8 52 +44 +44 опасность
перегрева
1000.8 1000.5 +28.7
09 16.08 С 8 20 км н/о +35.7 +22.4 46 +45 +45 опасность
перегрева
999.9 999.6
12 16.08 С 8 20 км н/о +37.4 +22.3 42 +46 +46 опасность
перегрева
998.4 998.1
15 16.08 СВ 5 20 км н/о +38.7 +21.0 36 +37 +37 очень
жарко
998.4 998.1
18 16.08 С 3 20 км н/о +34.1 +19.3 42 +39 +39 очень
душно
999.9 999.6 +41.1
21 16.08 С 3 20 км н/о +29.5 +18.0 50 +34 +34 очень
душно
999.2 998.9
00 17.08 З 4 20 км н/о +32.8 +19.6 46 +50 +50 опасность
перегрева
998.6 998.3
03 17.08 З 7 20 км н/о +33.3 +21.7 51 999.5 999.2
06 17.08 СЗ 8 20 км н/о +34.3 +21.9 49 +43 +43 опасность
перегрева
1000.2 999.9 +27.9
09 17.08 С 11 20 км н/о +35.7 +23.1 48 +46 +46 опасность
перегрева
998.8 998.5
12 17.08 С 10 20 км н/о +38.3 +20.4 36 +44 +44 опасность
перегрева
997.1 996.8
15 17.08 СВ 4 20 км н/о +39.1 +14.3 23 +40 +40 очень
душно
996.6 996.3
18 17.08 С 6 20 км н/о +35.1 +21.2 44 +42 +42 опасность
перегрева
997.3 997.0 +41.3
21 17.08 штиль 0 20 км н/о +30.7 +24.0 68 +43 +43 опасность
перегрева
996.6 996.3
00 18.08 З 4 20 км н/о +32.9 +24.1 60 +45 +45 опасность
перегрева
996.2 995.9
03 18.08 СЗ 11 20 км н/о +33.7 +24.1 57 +46 +46 опасность
перегрева
997.3 997.0

 

Местоположение метеостанции Dukhan (Катар): широта 25.40 долгота 50.75 высота над уровнем моря 5 м.

В архиве по умолчанию представлена погода в Dukhan за последнюю неделю. Архивные данные за месяц целиком и за предыдущие месяцы, начиная с января 2011 года, Вы можете получить, выбрав интересующий диапазон дат из раскрывающегося списка и нажав кнопку "Ввод!".


*Определитесь, кто Вы:
робот инопланетянин человек

Внимание! Время в таблицах - всемирное. Для получения местного времени необходимо прибавить поправку, которая в Dukhan равна 4 ч.

Смотрите также архив погоды в соседних городах и на ближайших метеорологических станциях:

Погода в Abu Samra (Катар) (73 км)
Погода в Doha (Катар) (84 км)
Погода в Hamad Int Airport (Катар) (88 км)
Погода в Bahrain (Бахрейн) (97 км)
Погода в Dhahran (Саудовская Аравия) (113 км)
Погода в Al Ahsa (Саудовская Аравия) (128 км)
Погода в King Fahd Int Airport (Саудовская Аравия) (149 км)
Погода в Bandar Deyr (Иран) (295 км)
Погода в Kish Island (Иран) (345 км)
Погода в Sirri Island (Иран) (385 км)

Пояснения к столбцам:

Ветер - указаны скорость ветра в м/с - средняя за 10 мин, порывы в срок и между сроками (в фигурных скобках) и направление, откуда дует ветер: С - северный, СВ - северо-восточный, В - восточный, ЮВ - юго-восточный, Ю - южный, ЮЗ - юго-западный, З - западный, СЗ - северо-западный.
Видимость - горизонтальная дальность видимости в метрах или километрах. При видимости от 1 до 10 км при отсутствии осадков обычно наблюдается дымка, при ухудшении видимости до 1 км и менее - туман. В сухую погоду видимость может ухудшаться дымом, пылью или мглою.
Явления - указаны атмосферные явления, наблюдавшиеся в срок или в последний час перед сроком; фигурными скобками обозначены явления, наблюдавшиеся между сроками (за 1-3 часа до срока); квадратными скобками обозначены град или гололедные отложения с указанием их диаметра в мм.
Облачность - указаны через наклонную черту общая и нижняя облачность в баллах и высота нижней границы облаков в метрах; квадратными скобками обозначены формы облаков: Ci - перистые, Cs - перисто-слоистые, Cc - перисто-кучевые, Ac - высококучевые, As - высокослоистые, Sc - слоисто-кучевые, Ns - слоисто-дождевые, Cu - кучевые, Cb - кучево-дождевые. Подробнее классификацию облаков см. в Атласе облаков (PDF).
T - Температура воздуха - температура, измеренная на высоте 2 м над землей.
Td - Температура точки росы - температура, при понижении до которой содержащийся в воздухе водяной пар достигнет насыщения.
f - Относительная влажность воздуха - влажноcть воздуха, измеренная на высоте 2 м над землей.
Te - Эффективная температура - температура, которую ощущает одетый по сезону человек в тени. Характеристика душности погоды. При расчете учитывается влияние влажности воздуха и скорости ветра на теплоощущения человека.
Tes - Эффективная температура на солнце - температура, которую ощущает человек, с поправкой на солнечный нагрев. Характеристика знойности погоды. Зависит от высоты солнца над горизонтом, облачности и скорости ветра. Ночью, в пасмурную погоду, а также при ветре 12 м/с и более поправка равна нулю.
P - Атмосферное давление - приведенное к уровню моря атмосферное давление.
Po - Атмосферное давление - измеренное на уровне метеостанции атмосферное давление.
Tmin - Минимальная температура - минимум температуры воздуха на высоте 2 м над землей.
Tmax - Максимальная температура - максимум температуры воздуха на высоте 2 м над землей.
R - Количество осадков - Количество выпавших осадков за период времени, мм. При наведении курсора мыши на число - период времени, за который выпало указанное количество осадков.
R24 - Количество осадков - Количество выпавших осадков за 24 часа, мм.
S - Снежный покров - Высота снежного покрова, см. При наведении курсора мыши на число - состояние снежного покрова и степень покрытия местности в баллах.